Radiation Dose at Monitoring Post of Fukushima Daini Nuclear Power Station
Date,Time,MP-1(microSv/h),MP-2(microSv/h),MP-3(microSv/h),MP-4(microSv/h),MP-5(microSv/h),MP-6(microSv/h),MP-7(microSv/h),Wind Direction,Wind Velocity(m/s),Rain
2015/07/16,00:00,0.517,0.317,0.536,0.486,0.469,0.242,0.210,south,7.8,No
2015/07/16,00:10,0.523,0.313,0.537,0.493,0.472,0.241,0.212,south-southwest,8.1,No
2015/07/16,00:20,0.525,0.314,0.543,0.495,0.468,0.239,0.212,south-southwest,8.0,No
2015/07/16,00:30,0.519,0.314,0.538,0.489,0.464,0.241,0.210,south-southwest,7.9,No
2015/07/16,00:40,0.519,0.313,0.535,0.488,0.471,0.241,0.210,south-southwest,6.2,No
2015/07/16,00:50,0.523,0.313,0.540,0.495,0.471,0.240,0.211,south-southwest,4.7,No
2015/07/16,01:00,0.520,0.315,0.543,0.494,0.466,0.239,0.210,south-southwest,7.4,Yes
2015/07/16,01:10,0.517,0.314,0.541,0.488,0.463,0.241,0.211,south-southwest,8.8,Yes
2015/07/16,01:20,0.522,0.311,0.533,0.486,0.473,0.240,0.211,south-southwest,9.6,Yes
2015/07/16,01:30,0.528,0.314,0.540,0.494,0.469,0.241,0.210,south-southwest,10.1,Yes
2015/07/16,01:40,0.519,0.315,0.542,0.494,0.464,0.241,0.210,south-southwest,8.8,Yes
2015/07/16,01:50,0.515,0.312,0.538,0.488,0.466,0.242,0.211,south-southwest,7.7,Yes
2015/07/16,02:00,0.524,0.313,0.537,0.488,0.473,0.241,0.211,southwest,8.2,Yes
2015/07/16,02:10,0.521,0.316,0.543,0.496,0.469,0.241,0.210,southwest,7.3,Yes
2015/07/16,02:20,0.517,0.313,0.541,0.493,0.465,0.241,0.212,southwest,5.6,Yes
2015/07/16,02:30,0.521,0.312,0.534,0.488,0.474,0.241,0.211,south-southwest,4.9,Yes
2015/07/16,02:40,0.522,0.315,0.543,0.494,0.470,0.241,0.211,south-southwest,5.3,Yes
2015/07/16,02:50,0.517,0.314,0.543,0.493,0.464,0.241,0.212,south-southwest,4.9,Yes
2015/07/16,03:00,0.524,0.313,0.538,0.487,0.472,0.242,0.210,southwest,4.9,Yes
2015/07/16,03:10,0.521,0.314,0.541,0.493,0.469,0.241,0.211,southwest,5.6,Yes
2015/07/16,03:20,0.516,0.312,0.543,0.490,0.464,0.241,0.210,southwest,4.7,Yes
2015/07/16,03:30,0.522,0.315,0.536,0.484,0.470,0.241,0.210,south-southwest,4.9,Yes
2015/07/16,03:40,0.521,0.314,0.540,0.492,0.468,0.240,0.212,south-southwest,4.7,Yes
2015/07/16,03:50,0.516,0.310,0.542,0.491,0.461,0.241,0.210,southwest,5.2,Yes
2015/07/16,04:00,0.523,0.313,0.534,0.485,0.469,0.240,0.209,south-southwest,4.3,Yes
2015/07/16,04:10,0.521,0.313,0.537,0.489,0.465,0.239,0.211,southwest,4.7,Yes
2015/07/16,04:20,0.514,0.311,0.541,0.490,0.461,0.241,0.210,south-southwest,4.8,Yes
2015/07/16,04:30,0.522,0.312,0.536,0.483,0.469,0.241,0.210,southwest,4.4,Yes
2015/07/16,04:40,0.520,0.312,0.534,0.489,0.466,0.239,0.210,southwest,4.2,Yes
2015/07/16,04:50,0.513,0.310,0.539,0.490,0.462,0.239,0.209,south-southwest,3.6,Yes
2015/07/16,05:00,0.519,0.313,0.532,0.482,0.466,0.240,0.211,south-southwest,3.1,Yes
2015/07/16,05:10,0.518,0.310,0.533,0.485,0.465,0.238,0.209,south-southwest,3.1,Yes
2015/07/16,05:20,0.510,0.309,0.536,0.486,0.460,0.239,0.210,south,2.6,Yes
2015/07/16,05:30,0.519,0.312,0.530,0.480,0.466,0.239,0.210,south,2.3,Yes
2015/07/16,05:40,0.512,0.306,0.526,0.477,0.460,0.238,0.205,south,2.6,Yes
2015/07/16,05:50,0.505,0.303,0.526,0.473,0.451,0.235,0.205,southwest,2.1,Yes
2015/07/16,06:00,0.510,0.305,0.519,0.467,0.459,0.234,0.203,south-southwest,2.2,Yes
2015/07/16,06:10,0.505,0.301,0.514,0.470,0.457,0.234,0.204,southwest,1.3,Yes
2015/07/16,06:20,0.500,0.305,0.522,0.473,0.452,0.233,0.204,west-northwest,1.4,Yes
2015/07/16,06:30,0.506,0.303,0.514,0.466,0.456,0.233,0.202,north-northwest,7.4,Yes
2015/07/16,06:40,0.501,0.300,0.512,0.466,0.458,0.233,0.201,south-southeast,1.0,Yes
2015/07/16,06:50,0.497,0.304,0.517,0.469,0.452,0.232,0.201,west,1.0,Yes
2015/07/16,07:00,0.505,0.302,0.515,0.466,0.454,0.233,0.202,-,CALM,Yes
2015/07/16,07:10,0.499,0.300,0.510,0.465,0.462,0.232,0.202,north-northeast,1.6,Yes
2015/07/16,07:20,0.500,0.303,0.519,0.469,0.455,0.232,0.201,north-northwest,1.3,Yes
2015/07/16,07:30,0.506,0.302,0.517,0.468,0.454,0.233,0.203,north,2.5,Yes
2015/07/16,07:40,0.497,0.300,0.507,0.463,0.463,0.232,0.202,north,3.0,Yes
2015/07/16,07:50,0.499,0.302,0.510,0.464,0.453,0.230,0.199,north-northeast,4.4,Yes
2015/07/16,08:00,0.490,0.293,0.498,0.450,0.443,0.227,0.196,east-southeast,3.4,Yes
2015/07/16,08:10,0.482,0.296,0.490,0.438,0.450,0.224,0.195,east,4.2,Yes
2015/07/16,08:20,0.479,0.292,0.493,0.438,0.442,0.221,0.195,north-northeast,3.3,Yes
2015/07/16,08:30,0.475,0.293,0.490,0.441,0.446,0.221,0.195,north-northeast,4.7,Yes
2015/07/16,08:40,0.479,0.296,0.497,0.445,0.453,0.223,0.197,north-northeast,4.7,Yes
2015/07/16,08:50,0.483,0.295,0.502,0.453,0.451,0.225,0.197,north,3.8,Yes
2015/07/16,09:00,0.476,0.296,0.498,0.449,0.453,0.224,0.197,northwest,2.9,Yes
2015/07/16,09:10,0.472,0.292,0.490,0.438,0.447,0.220,0.195,northwest,4.4,Yes
2015/07/16,09:20,0.470,0.287,0.490,0.438,0.442,0.221,0.194,west,1.6,Yes
2015/07/16,09:30,0.455,0.285,0.473,0.422,0.436,0.214,0.190,north-northwest,2.7,Yes
2015/07/16,09:40,0.454,0.283,0.454,0.421,0.431,0.216,0.188,west-northwest,3.8,Yes
2015/07/16,09:50,0.456,0.283,0.460,0.432,0.430,0.218,0.190,north-northeast,2.3,Yes
2015/07/16,10:00,0.459,0.285,0.464,0.435,0.440,0.220,0.193,north-northwest,3.0,Yes
2015/07/16,10:10,0.472,0.287,0.476,0.439,0.441,0.221,0.193,north-northwest,4.6,Yes
2015/07/16,10:20,0.470,0.284,0.481,0.448,0.440,0.221,0.194,north,5.4,Yes
2015/07/16,10:30,0.467,0.287,0.479,0.440,0.450,0.218,0.196,north-northwest,2.2,Yes
2015/07/16,10:40,0.474,0.285,0.486,0.443,0.449,0.220,0.195,north-northwest,4.0,Yes
2015/07/16,10:50,0.471,0.286,0.489,0.449,0.444,0.222,0.198,north,4.9,Yes
2015/07/16,11:00,0.469,0.288,0.483,0.442,0.450,0.221,0.198,northeast,7.7,Yes
2015/07/16,11:10,0.476,0.286,0.486,0.440,0.450,0.223,0.197,north-northwest,5.8,Yes
2015/07/16,11:20,0.475,0.286,0.487,0.448,0.446,0.222,0.198,northwest,5.7,Yes
2015/07/16,11:30,0.469,0.289,0.481,0.441,0.454,0.223,0.198,north,6.7,Yes
2015/07/16,11:40,0.476,0.287,0.483,0.443,0.452,0.223,0.196,north-northwest,4.3,Yes
2015/07/16,11:50,0.474,0.286,0.491,0.452,0.449,0.222,0.199,north-northwest,5.3,Yes
2015/07/16,12:00,0.473,0.289,0.490,0.449,0.457,0.222,0.198,north-northwest,5.8,Yes
2015/07/16,12:10,0.478,0.286,0.493,0.453,0.452,0.223,0.196,north-northwest,5.8,Yes
2015/07/16,12:20,0.476,0.287,0.494,0.454,0.448,0.223,0.198,north,5.1,Yes
2015/07/16,12:30,0.476,0.288,0.490,0.452,0.457,0.223,0.196,north-northwest,4.7,Yes
2015/07/16,12:40,0.480,0.286,0.499,0.453,0.452,0.223,0.197,north-northwest,4.7,Yes
2015/07/16,12:50,0.476,0.286,0.497,0.455,0.449,0.223,0.196,north-northwest,4.6,Yes
2015/07/16,13:00,0.476,0.285,0.491,0.451,0.456,0.223,0.195,north-northwest,4.6,Yes
2015/07/16,13:10,0.477,0.282,0.493,0.447,0.448,0.223,0.195,north,8.9,Yes
2015/07/16,13:20,0.473,0.281,0.492,0.449,0.445,0.220,0.195,north-northwest,4.8,Yes
2015/07/16,13:30,0.471,0.283,0.487,0.446,0.453,0.222,0.194,north-northwest,4.4,Yes
2015/07/16,13:40,0.481,0.281,0.491,0.449,0.448,0.221,0.195,north,4.8,Yes
2015/07/16,13:50,0.473,0.282,0.492,0.449,0.444,0.221,0.195,north-northwest,5.4,Yes
2015/07/16,14:00,0.470,0.282,0.486,0.442,0.451,0.222,0.194,north-northwest,5.4,Yes
2015/07/16,14:10,0.480,0.280,0.490,0.445,0.448,0.222,0.195,north,6.1,Yes
2015/07/16,14:20,0.474,0.283,0.493,0.450,0.447,0.222,0.195,north,4.4,Yes
2015/07/16,14:30,0.472,0.284,0.484,0.445,0.453,0.224,0.194,north,5.8,Yes
2015/07/16,14:40,0.479,0.280,0.491,0.445,0.449,0.222,0.196,north-northeast,2.4,Yes
2015/07/16,14:50,0.473,0.283,0.489,0.445,0.443,0.222,0.195,northeast,4.5,Yes
2015/07/16,15:00,0.473,0.281,0.483,0.443,0.451,0.223,0.195,north-northwest,4.5,Yes
2015/07/16,15:10,0.479,0.282,0.490,0.448,0.445,0.221,0.195,north-northwest,5.0,Yes
2015/07/16,15:20,0.470,0.281,0.484,0.442,0.445,0.220,0.192,northwest,4.4,Yes
2015/07/16,15:30,0.462,0.276,0.461,0.426,0.442,0.219,0.193,northwest,4.5,Yes
2015/07/16,15:40,0.469,0.279,0.470,0.437,0.440,0.220,0.194,west-northwest,3.6,Yes
2015/07/16,15:50,0.468,0.283,0.476,0.446,0.451,0.222,0.194,north-northeast,2.8,Yes
2015/07/16,16:00,0.472,0.281,0.480,0.444,0.451,0.222,0.197,north-northeast,2.0,Yes
2015/07/16,16:10,0.477,0.283,0.490,0.451,0.447,0.220,0.196,north-northeast,2.5,Yes
2015/07/16,16:20,0.474,0.284,0.491,0.453,0.454,0.221,0.195,northeast,1.0,No
2015/07/16,16:30,0.476,0.279,0.487,0.450,0.452,0.220,0.196,northeast,1.4,Yes
2015/07/16,16:40,0.478,0.281,0.492,0.452,0.444,0.220,0.193,northwest,1.0,Yes
2015/07/16,16:50,0.472,0.279,0.491,0.454,0.451,0.221,0.194,northeast,0.6,Yes
2015/07/16,17:00,0.477,0.277,0.489,0.450,0.451,0.220,0.193,northeast,0.5,Yes
2015/07/16,17:10,0.477,0.279,0.494,0.453,0.446,0.220,0.193,-,CALM,Yes
2015/07/16,17:20,0.473,0.279,0.495,0.454,0.452,0.220,0.193,north-northwest,0.7,Yes
2015/07/16,17:30,0.477,0.277,0.489,0.449,0.448,0.221,0.192,west-northwest,0.6,Yes
2015/07/16,17:40,0.477,0.280,0.494,0.451,0.444,0.220,0.193,-,CALM,Yes
2015/07/16,17:50,0.472,0.278,0.496,0.456,0.451,0.220,0.194,-,CALM,Yes
2015/07/16,18:00,0.477,0.276,0.490,0.451,0.451,0.220,0.192,south,0.6,Yes
2015/07/16,18:10,0.479,0.280,0.494,0.451,0.446,0.221,0.193,south-southeast,1.9,Yes
2015/07/16,18:20,0.473,0.279,0.493,0.456,0.452,0.222,0.192,south-southeast,1.9,Yes
2015/07/16,18:30,0.478,0.277,0.492,0.453,0.451,0.220,0.192,south-southeast,2.8,Yes
2015/07/16,18:40,0.483,0.281,0.496,0.452,0.445,0.221,0.193,south,3.1,Yes
2015/07/16,18:50,0.475,0.278,0.496,0.455,0.451,0.221,0.192,south,3.1,Yes
2015/07/16,19:00,0.477,0.279,0.490,0.451,0.449,0.220,0.192,south,3.2,Yes
2015/07/16,19:10,0.482,0.279,0.496,0.455,0.445,0.221,0.192,south,3.7,Yes
2015/07/16,19:20,0.478,0.277,0.496,0.456,0.452,0.222,0.192,south-southwest,5.3,No
2015/07/16,19:30,0.478,0.278,0.492,0.451,0.450,0.221,0.194,south-southwest,6.7,Yes
2015/07/16,19:40,0.483,0.279,0.498,0.453,0.445,0.222,0.192,south-southwest,7.2,Yes
2015/07/16,19:50,0.477,0.277,0.496,0.455,0.453,0.222,0.193,south-southwest,7.3,Yes
2015/07/16,20:00,0.478,0.279,0.491,0.453,0.449,0.221,0.195,south-southwest,7.0,Yes
2015/07/16,20:10,0.483,0.279,0.497,0.452,0.443,0.222,0.193,south-southwest,7.9,Yes
2015/07/16,20:20,0.477,0.277,0.496,0.457,0.451,0.221,0.194,south-southwest,9.1,Yes
2015/07/16,20:30,0.477,0.281,0.491,0.453,0.449,0.221,0.193,south,8.0,Yes
2015/07/16,20:40,0.482,0.280,0.493,0.447,0.446,0.222,0.193,south-southwest,9.8,Yes
2015/07/16,20:50,0.476,0.278,0.499,0.455,0.449,0.222,0.193,south-southwest,10.1,Yes
2015/07/16,21:00,0.475,0.279,0.494,0.456,0.453,0.221,0.193,south-southwest,12.1,No
2015/07/16,21:10,0.480,0.279,0.493,0.451,0.448,0.222,0.192,south-southwest,9.5,No
2015/07/16,21:20,0.480,0.278,0.497,0.451,0.448,0.224,0.193,south-southwest,8.8,No
2015/07/16,21:30,0.477,0.277,0.496,0.458,0.452,0.221,0.193,south-southwest,8.3,No
2015/07/16,21:40,0.481,0.281,0.491,0.454,0.450,0.223,0.193,south-southwest,9.5,No
2015/07/16,21:50,0.483,0.281,0.497,0.450,0.446,0.223,0.192,south-southwest,9.7,Yes
2015/07/16,22:00,0.479,0.277,0.498,0.457,0.452,0.223,0.194,south-southwest,10.5,Yes
2015/07/16,22:10,0.477,0.279,0.496,0.457,0.450,0.222,0.194,south-southwest,10.2,Yes
2015/07/16,22:20,0.483,0.282,0.493,0.452,0.448,0.224,0.193,south-southwest,11.3,Yes
2015/07/16,22:30,0.482,0.278,0.500,0.452,0.447,0.223,0.193,south,9.3,Yes
2015/07/16,22:40,0.478,0.277,0.498,0.457,0.454,0.223,0.195,south-southwest,10.6,Yes
2015/07/16,22:50,0.477,0.281,0.494,0.455,0.452,0.222,0.193,south-southwest,9.2,Yes
2015/07/16,23:00,0.485,0.280,0.499,0.452,0.448,0.224,0.192,south-southwest,10.1,No
2015/07/16,23:10,0.483,0.278,0.502,0.455,0.449,0.224,0.194,south-southwest,9.8,No
2015/07/16,23:20,0.477,0.280,0.496,0.459,0.453,0.223,0.194,south-southwest,9.8,No
2015/07/16,23:30,0.482,0.281,0.493,0.456,0.451,0.224,0.193,south-southwest,9.8,No
2015/07/16,23:40,0.484,0.278,0.500,0.451,0.447,0.223,0.194,south-southwest,10.1,No
2015/07/16,23:50,0.481,0.280,0.499,0.460,0.455,0.224,0.195,south-southwest,9.0,No
